Regional Weather Roundup
Issued by NWS

Home | Current Version | Previous Version | Graphics & Text | Print | Product List | Glossary On
Versions: 1 2 3 4 5 6 7 8 9 10 11 12 13 14 15 16 17 18 19 20 21 22 23 24 25 26 27 28 29 30 31 32 33 34 35 36 37 38 39 40 41 42 43 44 45 46 47 48 49 50
000
ASUS43 KIND 050659
RWRIN

WEATHER ROUNDUP FOR INDIANA
NATIONAL WEATHER SERVICE INDIANAPOLIS IN
200 AM EST MON DEC 05 2016

NOTE: "FAIR" INDICATES FEW OR NO CLOUDS BELOW 12,000 FEET WITH NO
SIGNIFICANT WEATHER AND/OR OBSTRUCTIONS TO VISIBILITY.

* - STATION DOES NOT REPORT WEATHER SUCH AS PRECIPITATION OR FOG.

+ - STATION NOT QUALITY CONTROLLED BY THE NATIONAL WEATHER SERVICE.
    USE DATA WITH CAUTION...ESPECIALLY DEWPOINT AND RELATIVE
    HUMIDITY OBSERVATIONS.

INZ001>003-010>013-019-020-050800-
NORTHWEST INDIANA

CITY           SKY/WX    TMP DP  RH WIND       PRES   REMARKS

$$

LMZ046-743>745-050800-
SOUTHERN LAKE MICHIGAN

STATION/POSITION TIME  TEMP    WIND        PRES    WAVE
                       AIR SEA DIR/SP/G            HT
                 (UTC) (F)     (DEG/KT/KT) (MB)    (FT)
BURNS HARBOR     0640   35     250/ 17/ 23 1014.9R

$$

INZ004-005-014>016-021>024-050800-
NORTH CENTRAL INDIANA

CITY           SKY/WX    TMP DP  RH WIND       PRES   REMARKS
GOSHEN         CLOUDY    34  30  85 W14       29.92R WCI  25
PERU/GRISSOM   CLOUDY    32  32 100 W12       29.95R WCI  23
SOUTH BEND     CLOUDY    32  31  96 W10       29.93R WCI  24

$$

INZ006>009-017-018-025>027-050800-
NORTHEAST INDIANA

CITY           SKY/WX    TMP DP  RH WIND       PRES   REMARKS
ANGOLA *+      CLOUDY    34  34 100 W6        29.89R WCI  29
FORT WAYNE     CLOUDY    33  31  92 W12       29.94R WCI  24
KENDALLVILLE + CLOUDY    33  32  96 W10       29.91R WCI  25

$$

INZ028-029-035-036-043>045-051>053-050800-
WEST CENTRAL INDIANA

CITY           SKY/WX    TMP DP  RH WIND       PRES   REMARKS
CRAWFORDSVL +  CLOUDY    32  32 100 W9        30.01R WCI  24
GREENCASTLE +  CLOUDY    34  34 100 W6        30.01R WCI  29
LAFAYETTE      CLOUDY    33  33 100 W7        30.00R WCI  27
TERRE HAUTE    CLOUDY    36  30  79 W7        30.03R

$$

INZ030>032-037>040-046>048-054>057-064-065-050800-
CENTRAL INDIANA

CITY           SKY/WX    TMP DP  RH WIND       PRES   REMARKS
GREENWOOD *+   CLOUDY    36  32  88 NW7       30.00S
INDIANAPOLIS   CLOUDY    35  31  85 W8        30.00S WCI  29
-EAGLE CREEK   CLOUDY    36  31  82 W13       29.99R
KOKOMO +       CLOUDY    33  31  92 W13       29.98R WCI  24
SHELBYVILLE    CLOUDY    37  31  78 W9        29.99S

$$

INZ033-034-041-042-049-050-058-059-050800-
EAST CENTRAL INDIANA

CITY           SKY/WX    TMP DP  RH WIND       PRES   REMARKS
MUNCIE         CLOUDY    35  31  85 W13       29.97R WCI  26

$$

INZ060-061-067>069-081>083-085>088-050800-
SOUTHWEST INDIANA

CITY           SKY/WX    TMP DP  RH WIND       PRES   REMARKS
EVANSVILLE     CLOUDY    40  33  76 VRB6      30.06S
HUNTINGBURG *+ CLOUDY    38  34  85 CALM      30.05S

$$

INZ062-063-066-070>080-084-089>092-050800-
SOUTH CENTRAL AND SOUTHEAST INDIANA

CITY           SKY/WX    TMP DP  RH WIND       PRES   REMARKS
BLOOMINGTON    CLOUDY    35  30  82 W5        30.02R WCI  31
MADISON *+     CLOUDY    37  34  87 W9        30.03S
SEYMOUR +      CLOUDY    39  34  81 W5        30.03R

$$




USA.gov is the U.S. government's official web portal to all federal, state and local government web resources and services.